THY19E LOWW-LTFM

Flight info

Callsign THY19E
Flight time N/A
Altitude 35000
Route ARSIN DCT NALOX DCT BABIT DCT ESIRI DCT ETIDA T390 RILEX
Aircraft A321/M-SDE3FGHIRWY/LB1

Departure

Time 2026-04-20 18:16
Airport Vienna International Airport (LOWW)

Arrival

Time N/A
Airport İstanbul Airport (LTFM)
Time Latitude Longitude Altitude Speed Heading
2026-04-20 17:54 48.11848 16.56934 610 ft 0 kts 206°
2026-04-20 18:07 48.11849 16.56934 583 ft 0 kts 206°
2026-04-20 18:09 48.11854 16.56938 621 ft 2 kts 204°
2026-04-20 18:09 48.11872 16.56949 628 ft 3 kts 194°
2026-04-20 18:09 48.11892 16.56954 627 ft 3 kts 178°
2026-04-20 18:10 48.11911 16.56950 621 ft 3 kts 150°
2026-04-20 18:10 48.11922 16.56937 620 ft 1 kts 116°
2026-04-20 18:10 48.11922 16.56935 619 ft 2 kts 116°
2026-04-20 18:12 48.11923 16.56935 619 ft 0 kts 116°
2026-04-20 18:13 48.11911 16.56972 619 ft 10 kts 115°
2026-04-20 18:13 48.11863 16.57119 618 ft 12 kts 115°
2026-04-20 18:13 48.11854 16.57203 610 ft 9 kts 97°
2026-04-20 18:13 48.11820 16.57316 617 ft 13 kts 121°
2026-04-20 18:14 48.11741 16.57373 618 ft 14 kts 163°
2026-04-20 18:14 48.11638 16.57417 618 ft 18 kts 165°
2026-04-20 18:14 48.11510 16.57460 615 ft 19 kts 183°
2026-04-20 18:14 48.11387 16.57384 615 ft 20 kts 206°
2026-04-20 18:15 48.11261 16.57293 618 ft 20 kts 206°
2026-04-20 18:15 48.11131 16.57198 622 ft 21 kts 206°
2026-04-20 18:15 48.11069 16.57061 610 ft 17 kts 290°
2026-04-20 18:15 48.11125 16.56885 621 ft 30 kts 296°
2026-04-20 18:16 48.11330 16.56259 622 ft 101 kts 296°
2026-04-20 18:16 48.11729 16.55032 620 ft 158 kts 296°
2026-04-20 18:16 48.12175 16.53432 1116 ft 168 kts 280°
2026-04-20 18:16 48.11845 16.51739 1783 ft 181 kts 236°
2026-04-20 18:17 48.10812 16.50489 2016 ft 206 kts 217°
2026-04-20 18:17 48.09577 16.49205 2190 ft 228 kts 215°
2026-04-20 18:17 48.08177 16.47804 2314 ft 256 kts 207°
2026-04-20 18:17 48.06384 16.47392 2794 ft 271 kts 174°
2026-04-20 18:18 48.04497 16.47723 3527 ft 274 kts 173°
2026-04-20 18:18 48.02593 16.48090 4294 ft 277 kts 173°
2026-04-20 18:18 48.00679 16.48464 5058 ft 279 kts 173°
2026-04-20 18:18 47.98746 16.48837 5822 ft 281 kts 175°
2026-04-20 18:19 47.96803 16.48743 6566 ft 279 kts 194°
2026-04-20 18:19 47.94867 16.48396 7262 ft 286 kts 177°
2026-04-20 18:19 47.92952 16.49315 7937 ft 294 kts 156°
2026-04-20 18:19 47.91118 16.50723 8678 ft 297 kts 154°
2026-04-20 18:20 47.89288 16.52199 9395 ft 301 kts 155°
2026-04-20 18:20 47.87424 16.53675 10060 ft 305 kts 155°
2026-04-20 18:20 47.85545 16.55111 10650 ft 309 kts 156°
2026-04-20 18:20 47.83608 16.56540 11292 ft 312 kts 157°
2026-04-20 18:21 47.81643 16.57951 11954 ft 315 kts 158°
2026-04-20 18:21 47.79644 16.59357 12506 ft 323 kts 159°
2026-04-20 18:21 47.77538 16.60819 12639 ft 344 kts 159°
2026-04-20 18:21 47.75310 16.62364 12779 ft 363 kts 158°
2026-04-20 18:22 47.72974 16.63989 13031 ft 377 kts 158°
2026-04-20 18:22 47.70575 16.65667 13555 ft 382 kts 158°
2026-04-20 18:22 47.68159 16.67362 14104 ft 386 kts 158°
2026-04-20 18:22 47.65724 16.69075 14638 ft 389 kts 158°
2026-04-20 18:23 47.63425 16.71246 15150 ft 397 kts 142°
2026-04-20 18:23 47.61359 16.74001 15675 ft 401 kts 140°
2026-04-20 18:23 47.59291 16.76803 16203 ft 404 kts 140°